EW9154 Weather Reports


time (UTC)temp
C
wind
direction
speed
KPH
gust
KPH
rain 1hr
cm
rain 24hr
cm
rain mn
cm
humidity
%
barometer
mb
20260504004730 20 252 0.0 0.0 0.00 0.00 0.00 26 1018.0
20260504003936 20 252 0.0 0.0 0.00 0.00 0.00 27 1017.9
20260504003411 20 251 0.0 0.0 0.00 0.00 0.00 26 1017.9
20260504003406 20 244 0.0 0.0 0.00 0.00 0.00 26 1018.0
20260504002340 20 244 0.0 4.8 0.00 0.00 0.00 26 1018.0
20260504001820 20 257 0.0 4.8 0.00 0.00 0.00 26 1018.0
20260504001318 20 251 0.0 4.8 0.00 0.00 0.00 27 1018.1
20260504000750 20 245 0.0 12.9 0.00 0.00 0.00 26 1018.1
20260504000246 20 256 0.0 12.9 0.00 0.00 0.00 25 1018.1
20260503235722 21 261 0.0 9.7 0.00 0.00 0.00 25 1018.0
20260503235204 21 261 0.0 9.7 0.00 0.00 0.00 24 1018.0
20260503234939 21 282 0.0 8.0 0.00 0.00 0.00 24 1018.0
20260503234139 21 236 0.0 1.6 0.00 0.00 0.00 25 1018.1
20260503233638 21 236 0.0 8.0 0.00 0.00 0.00 25 1018.0
20260503233614 21 229 0.0 8.0 0.00 0.00 0.00 25 1018.1
20260503232815 21 269 0.0 6.4 0.00 0.00 0.00 25 1018.2
20260503232041 22 268 0.0 6.4 0.00 0.00 0.00 23 1018.3
20260503231522 22 265 0.0 8.0 0.00 0.00 0.00 23 1018.4
20260503230955 22 265 0.0 8.0 0.00 0.00 0.00 23 1018.4
20260503230430 22 234 0.0 0.0 0.00 0.00 0.00 22 1018.4
20260503225927 23 238 0.0 0.0 0.00 0.00 0.00 22 1018.4
20260503225654 23 232 0.0 4.8 0.00 0.00 0.00 23 1018.5
20260503224856 23 244 0.0 4.8 0.00 0.00 0.00 22 1018.5
20260503224838 23 242 0.0 4.8 0.00 0.00 0.00 21 1018.5
20260503223811 23 284 0.0 4.8 0.00 0.00 0.00 21 1018.6
20260503223242 23 234 0.0 3.2 0.00 0.00 0.00 21 1018.8
20260503222738 23 236 0.0 6.4 0.00 0.00 0.00 22 1018.7
20260503222212 23 242 0.0 6.4 0.00 0.00 0.00 21 1018.6
20260503221645 23 249 0.0 1.6 0.00 0.00 0.00 20 1018.6
20260503221127 23 266 0.0 12.9 0.00 0.00 0.00 21 1018.7
20260503220558 24 242 1.6 12.9 0.00 0.00 0.00 20 1018.7
20260503220034 23 254 1.6 11.3 0.00 0.00 0.00 21 1018.7
20260503215512 24 244 0.0 6.4 0.00 0.00 0.00 20 1018.7
20260503215012 25 233 0.0 1.6 0.00 0.00 0.00 22 1018.8
20260503214741 25 247 0.0 3.2 0.00 0.00 0.00 21 1018.8
20260503214014 24 253 0.0 11.3 0.00 0.00 0.00 22 1018.8
20260503213448 24 254 0.0 11.3 0.00 0.00 0.00 23 1018.8
20260503212919 24 288 0.0 11.3 0.00 0.00 0.00 23 1018.9
20260503212418 24 200 0.0 12.9 0.00 0.00 0.00 24 1018.8
20260503211849 24 251 0.0 12.9 0.00 0.00 0.00 23 1019.0
20260503211349 24 238 1.6 11.3 0.00 0.00 0.00 23 1019.0
20260503210826 24 227 0.0 8.0 0.00 0.00 0.00 22 1019.0
20260503210300 24 265 0.0 9.7 0.00 0.00 0.00 23 1019.1
20260503205731 24 263 0.0 9.7 0.00 0.00 0.00 23 1019.1
20260503205230 24 350 0.0 4.8 0.00 0.00 0.00 23 1019.1
20260503204702 25 262 0.0 6.4 0.00 0.00 0.00 23 1019.2
20260503204158 24 69 0.0 6.4 0.00 0.00 0.00 24 1019.2
20260503203637 25 251 0.0 4.8 0.00 0.00 0.00 23 1019.2
20260503203111 24 221 0.0 4.8 0.00 0.00 0.00 24 1019.3
20260503202609 24 296 0.0 9.7 0.00 0.00 0.00 25 1019.4
20260503202107 24 197 0.0 9.7 0.00 0.00 0.00 23 1019.4
20260503201605 24 265 0.0 3.2 0.00 0.00 0.00 26 1019.4
20260503201333 23 263 0.0 3.2 0.00 0.00 0.00 23 1019.5
20260503200559 23 343 0.0 1.6 0.00 0.00 0.00 25 1019.6
20260503195541 23 249 0.0 3.2 0.00 0.00 0.00 24 1019.8
20260503195041 23 331 0.0 3.2 0.00 0.00 0.00 25 1019.8
20260503194543 23 0 0.0 9.7 0.00 0.00 0.00 24 1019.8
20260503194538 23 265 0.0 9.7 0.00 0.00 0.00 25 1020.0
20260503193809 23 355 0.0 3.2 0.00 0.00 0.00 26 1020.0
20260503193034 23 342 0.0 3.2 0.00 0.00 0.00 26 1020.0
20260503192518 23 310 0.0 9.7 0.00 0.00 0.00 23 1020.0
20260503192019 23 246 0.0 3.2 0.00 0.00 0.00 23 1020.0
20260503191455 23 278 0.0 14.5 0.00 0.00 0.00 25 1020.0
20260503190942 23 229 0.0 6.4 0.00 0.00 0.00 25 1020.0
20260503190936 23 252 0.0 14.5 0.00 0.00 0.00 25 1019.8
20260503190418 23 236 0.0 3.2 0.00 0.00 0.00 27 1020.1
20260503185418 23 300 0.0 3.2 0.00 0.00 0.00 27 1020.1
20260503184852 23 331 0.0 3.2 0.00 0.00 0.00 28 1020.0
20260503184328 23 267 0.0 16.1 0.00 0.00 0.00 29 1020.1
20260503183801 23 190 0.0 16.1 0.00 0.00 0.00 26 1020.2
20260503183237 23 228 0.0 0.0 0.00 0.00 0.00 28 1020.2
20260503182713 23 300 0.0 1.6 0.00 0.00 0.00 29 1020.2
20260503182430 23 299 0.0 1.6 0.00 0.00 0.00 26 1020.3
20260503181656 23 267 0.0 0.0 0.00 0.00 0.00 28 1020.2
20260503181159 23 304 0.0 1.6 0.00 0.00 0.00 28 1020.4
20260503180651 23 294 0.0 1.6 0.00 0.00 0.00 28 1020.4
20260503180150 23 0 0.0 3.2 0.00 0.00 0.00 30 1020.4
20260503175649 23 149 0.0 3.2 0.00 0.00 0.00 30 1020.4
20260503175147 22 306 0.0 3.2 0.00 0.00 0.00 31 1020.4
20260503174648 22 273 0.0 3.2 0.00 0.00 0.00 32 1020.5
20260503174126 22 11 0.0 1.6 0.00 0.00 0.00 31 1020.5
20260503173624 22 278 0.0 1.6 0.00 0.00 0.00 32 1020.5
20260503173122 22 267 0.0 6.4 0.00 0.00 0.00 34 1020.5
20260503172620 22 303 0.0 8.0 0.00 0.00 0.00 30 1020.5
20260503172117 21 286 0.0 8.0 0.00 0.00 0.00 33 1020.5
20260503171615 22 229 0.0 4.8 0.00 0.00 0.00 34 1020.6
20260503171114 22 261 0.0 4.8 0.00 0.00 0.00 33 1020.5
20260503170825 22 334 0.0 4.8 0.00 0.00 0.00 36 1020.6
20260503170546 21 344 0.0 3.2 0.00 0.00 0.00 38 1020.6
20260503150631 17 355 0.0 4.8 0.00 0.00 0.00 42 1020.1
20260503150104 17 330 0.0 0.0 0.00 0.00 0.00 42 1020.1
20260503131142 12 233 0.0 0.0 0.00 0.00 0.00 56 1019.2
20260503130618 11 232 0.0 0.0 0.00 0.00 0.00 57 1019.1
20260503110631 11 194 3.2 19.3 0.00 0.00 0.00 52 1017.7
20260503110107 11 194 3.2 19.3 0.00 0.00 0.00 51 1017.7
20260503090449 13 170 3.2 19.3 0.00 0.00 0.00 47 1018.6
20260503081546 13 197 6.4 19.3 0.00 0.00 0.00 45 1018.8
20260503081023 13 223 4.8 25.7 0.00 0.00 0.00 45 1018.8
20260503080732 13 154 6.4 25.7 0.00 0.00 0.00 45 1018.9
20260503072821 14 209 3.2 16.1 0.00 0.00 0.00 46 1019.4
20260503072305 14 215 1.6 14.5 0.00 0.00 0.00 46 1019.5
20260503071803 15 197 3.2 19.3 0.00 0.00 0.00 47 1019.7
20260503071256 15 239 4.8 19.3 0.00 0.00 0.00 47 1019.8
20260503070756 15 186 1.6 17.7 0.00 0.00 0.00 47 1019.8
20260503070528 15 188 3.2 17.7 0.00 0.00 0.00 48 1020.0
20260503060256 15 261 4.8 27.4 0.00 0.00 0.00 50 1020.9
20260503054411 15 225 3.2 25.7 0.00 0.00 0.00 46 1021.4
20260503053912 14 201 0.0 12.9 0.00 0.00 0.00 46 1021.5
20260503053358 14 223 0.0 12.9 0.00 0.00 0.00 46 1021.6
20260503053106 14 225 0.0 8.0 0.00 0.00 0.00 46 1021.6
20260503052306 13 215 0.0 9.7 0.00 0.00 0.00 47 1021.5
20260503051740 13 211 0.0 9.7 0.00 0.00 0.00 47 1021.6
20260503051213 13 203 0.0 8.0 0.00 0.00 0.00 48 1021.6
20260503050649 13 201 0.0 8.0 0.00 0.00 0.00 48 1021.5
20260503050141 13 225 0.0 4.8 0.00 0.00 0.00 47 1021.5
20260503045628 13 188 0.0 8.0 0.00 0.00 0.00 47 1021.5
20260503045105 13 190 0.0 8.0 0.00 0.00 0.00 47 1021.5
20260503044542 13 205 0.0 4.8 0.00 0.00 0.00 46 1021.5
20260503044253 14 211 0.0 6.4 0.00 0.00 0.00 46 1021.6
20260503043514 14 246 0.0 12.9 0.00 0.00 0.00 46 1021.7
20260503043226 14 218 0.0 14.5 0.00 0.00 0.00 45 1021.9
20260503043059 14 196 0.0 12.9 0.00 0.00 0.00 45 1021.8
20260503041933 14 219 0.0 14.5 0.00 0.00 0.00 45 1021.9
20260503041411 14 186 0.0 11.3 0.00 0.00 0.00 45 1022.0
20260503040910 14 186 0.0 9.7 0.00 0.00 0.00 44 1021.9
20260503040408 14 207 0.0 4.8 0.00 0.00 0.00 44 1022.1
20260503035900 14 213 0.0 1.6 0.00 0.00 0.00 44 1022.2
20260503035336 15 217 0.0 11.3 0.00 0.00 0.00 44 1022.4
20260503034815 15 192 0.0 11.3 0.00 0.00 0.00 43 1022.5
20260503034314 15 200 0.0 9.7 0.00 0.00 0.00 42 1022.7
20260503033756 15 173 0.0 1.6 0.00 0.00 0.00 41 1022.7
20260503033752 15 172 0.0 9.7 0.00 0.00 0.00 42 1022.7
20260503033025 15 173 0.0 0.0 0.00 0.00 0.00 41 1022.8
20260503032251 15 202 0.0 0.0 0.00 0.00 0.00 40 1022.9
20260503031751 16 178 0.0 0.0 0.00 0.00 0.00 40 1023.0
20260503031251 16 209 0.0 3.2 0.00 0.00 0.00 40 1023.1
20260503030728 16 216 0.0 3.2 0.00 0.00 0.00 39 1023.2
20260503030159 16 221 0.0 1.6 0.00 0.00 0.00 39 1023.3
20260503025657 16 200 0.0 12.9 0.00 0.00 0.00 39 1023.4
20260503025157 16 207 0.0 12.9 0.00 0.00 0.00 39 1023.4
20260503024634 16 240 0.0 12.9 0.00 0.00 0.00 39 1023.5
20260503024614 16 177 0.0 8.0 0.00 0.00 0.00 39 1023.7
20260503023820 16 211 0.0 3.2 0.00 0.00 0.00 40 1023.8
20260503023022 16 211 0.0 3.2 0.00 0.00 0.00 40 1024.0
20260503022733 16 230 0.0 3.2 0.00 0.00 0.00 39 1024.0
20260503022616 16 225 0.0 6.4 0.00 0.00 0.00 39 1024.0
20260503021457 16 224 0.0 6.4 0.00 0.00 0.00 39 1024.1
20260503020959 16 233 0.0 14.5 0.00 0.00 0.00 39 1024.1
20260503020428 16 233 0.0 14.5 0.00 0.00 0.00 38 1024.1
20260503015905 16 223 0.0 0.0 0.00 0.00 0.00 38 1024.1
20260503015346 16 223 0.0 0.0 0.00 0.00 0.00 38 1024.0
20260503014821 17 224 1.6 14.5 0.00 0.00 0.00 38 1024.0
20260503014254 17 223 3.2 22.5 0.00 0.00 0.00 37 1024.1
20260503013728 17 227 1.6 22.5 0.00 0.00 0.00 38 1024.3
20260503013223 17 214 1.6 16.1 0.00 0.00 0.00 37 1024.3
20260503012719 17 219 3.2 17.7 0.00 0.00 0.00 36 1024.2
20260503012204 17 200 4.8 25.7 0.00 0.00 0.00 36 1024.4
20260503011635 17 232 1.6 25.7 0.00 0.00 0.00 35 1024.3
20260503011133 17 218 0.0 11.3 0.00 0.00 0.00 34 1024.3
20260503010630 17 242 0.0 11.3 0.00 0.00 0.00 35 1024.2
20260503010610 17 226 1.6 14.5 0.00 0.00 0.00 35 1024.2
20260503005545 17 236 1.6 17.7 0.00 0.00 0.00 34 1024.1
20260503005006 17 229 1.6 17.7 0.00 0.00 0.00 35 1024.2